| time (UTC) | temp F | wind direction | speed MPH | gust MPH | rain 1hr in | rain 24hr in | rain mn in | humidity % | barometer mb |
| 20260904154901 | 83 | 346 | 3.0 | 11.0 | 0.00 | 0.32 | 0.32 | 73 | 1011.8 |
| 20260904154610 | 82 | 33 | 3.0 | 11.0 | 0.00 | 0.32 | 0.32 | 74 | 1011.2 |
| 20260904154552 | 82 | 276 | 4.0 | 15.0 | 0.00 | 0.32 | 0.32 | 72 | 1011.7 |
| 20260904154411 | 83 | 5 | 6.0 | 15.0 | 0.00 | 0.32 | 0.32 | 73 | 1012.1 |
| 20260904153840 | 83 | 30 | 5.0 | 15.0 | 0.00 | 0.32 | 0.32 | 74 | 1012.1 |
| 20260904153351 | 83 | 321 | 4.0 | 15.0 | 0.00 | 0.32 | 0.32 | 73 | 1012.2 |
| 20260904153116 | 82 | 294 | 3.0 | 15.0 | 0.00 | 0.32 | 0.32 | 76 | 1011.6 |
| 20260904153105 | 82 | 360 | 4.0 | 15.0 | 0.00 | 0.32 | 0.32 | 75 | 1011.9 |
| 20260904152858 | 82 | 286 | 5.0 | 15.0 | 0.00 | 0.32 | 0.32 | 75 | 1012.3 |
| 20260904152346 | 82 | 281 | 3.0 | 10.0 | 0.00 | 0.32 | 0.32 | 75 | 1012.3 |
| 20260904151854 | 81 | 304 | 4.0 | 10.0 | 0.00 | 0.32 | 0.32 | 76 | 1012.3 |
| 20260904151623 | 81 | 360 | 4.0 | 10.0 | 0.00 | 0.32 | 0.32 | 78 | 1011.6 |
| 20260904151555 | 81 | 273 | 3.0 | 10.0 | 0.00 | 0.32 | 0.32 | 77 | 1012.1 |
| 20260904151343 | 81 | 351 | 3.0 | 9.0 | 0.00 | 0.32 | 0.32 | 77 | 1012.3 |
| 20260904150852 | 80 | 286 | 4.0 | 9.0 | 0.00 | 0.32 | 0.32 | 77 | 1012.3 |
| 20260904150403 | 80 | 311 | 3.0 | 8.0 | 0.00 | 0.32 | 0.32 | 79 | 1012.3 |
| 20260904150110 | 79 | 348 | 3.0 | 10.0 | 0.00 | 0.32 | 0.32 | 79 | 1011.7 |
| 20260904150054 | 79 | 16 | 3.0 | 10.0 | 0.00 | 0.32 | 0.32 | 80 | 1012.2 |
| 20260904145849 | 79 | 26 | 3.0 | 10.0 | 0.00 | 0.32 | 0.32 | 82 | 1012.3 |
| 20260904145340 | 78 | 19 | 5.0 | 9.0 | 0.00 | 0.32 | 0.32 | 83 | 1012.4 |
| 20260904144850 | 78 | 250 | 2.0 | 10.0 | 0.00 | 0.32 | 0.32 | 85 | 1012.3 |
| 20260904144620 | 77 | 355 | 2.0 | 10.0 | 0.00 | 0.32 | 0.32 | 86 | 1011.7 |
| 20260904144551 | 77 | 327 | 1.0 | 10.0 | 0.00 | 0.32 | 0.32 | 86 | 1012.3 |
| 20260904144341 | 77 | 26 | 3.0 | 10.0 | 0.00 | 0.32 | 0.32 | 86 | 1012.4 |
| 20260904143850 | 77 | 300 | 2.0 | 11.0 | 0.00 | 0.32 | 0.32 | 87 | 1012.3 |
| 20260904143345 | 77 | 336 | 2.0 | 11.0 | 0.00 | 0.32 | 0.32 | 87 | 1012.3 |
| 20260904143106 | 77 | 340 | 5.0 | 11.0 | 0.00 | 0.32 | 0.32 | 87 | 1011.7 |
| 20260904143048 | 76 | 360 | 4.0 | 11.0 | 0.00 | 0.32 | 0.32 | 87 | 1012.2 |
| 20260904142848 | 77 | 329 | 4.0 | 10.0 | 0.00 | 0.32 | 0.32 | 87 | 1012.3 |
| 20260904142356 | 76 | 28 | 3.0 | 10.0 | 0.00 | 0.32 | 0.32 | 89 | 1012.4 |
| 20260904141845 | 76 | 291 | 4.0 | 11.0 | 0.00 | 0.32 | 0.32 | 89 | 1012.4 |
| 20260904141606 | 75 | 63 | 2.0 | 11.0 | 0.00 | 0.32 | 0.32 | 89 | 1011.7 |
| 20260904141555 | 75 | 313 | 3.0 | 11.0 | 0.00 | 0.32 | 0.32 | 89 | 1012.2 |
| 20260904141353 | 76 | 292 | 4.0 | 11.0 | 0.00 | 0.32 | 0.32 | 89 | 1012.3 |
| 20260904140841 | 75 | 210 | 2.0 | 9.0 | 0.00 | 0.32 | 0.32 | 90 | 1012.3 |
| 20260904140411 | 75 | 269 | 2.0 | 9.0 | 0.00 | 0.32 | 0.32 | 90 | 1012.3 |
| 20260904140111 | 74 | 15 | 4.0 | 12.0 | 0.00 | 0.32 | 0.32 | 91 | 1011.7 |
| 20260904140055 | 74 | 339 | 3.0 | 12.0 | 0.00 | 0.32 | 0.32 | 90 | 1012.2 |
| 20260904135837 | 75 | 332 | 3.0 | 12.0 | 0.00 | 0.32 | 0.32 | 91 | 1012.3 |
| 20260904135347 | 75 | 329 | 3.0 | 11.0 | 0.00 | 0.32 | 0.32 | 92 | 1012.3 |
| 20260904134836 | 74 | 360 | 5.0 | 11.0 | 0.00 | 0.32 | 0.32 | 92 | 1012.3 |
| 20260904134621 | 74 | 19 | 2.0 | 8.0 | 0.00 | 0.32 | 0.32 | 93 | 1011.6 |
| 20260904134559 | 74 | 355 | 2.0 | 9.0 | 0.00 | 0.32 | 0.32 | 92 | 1012.1 |
| 20260904134346 | 74 | 297 | 2.0 | 9.0 | 0.00 | 0.32 | 0.32 | 93 | 1012.3 |
| 20260904133854 | 74 | 18 | 4.0 | 9.0 | 0.00 | 0.32 | 0.32 | 94 | 1012.2 |
| 20260904133342 | 74 | 282 | 2.0 | 9.0 | 0.00 | 0.32 | 0.32 | 94 | 1012.3 |
| 20260904133107 | 73 | 281 | 3.0 | 9.0 | 0.00 | 0.32 | 0.32 | 94 | 1011.6 |
| 20260904133049 | 73 | 275 | 4.0 | 9.0 | 0.00 | 0.32 | 0.32 | 93 | 1012.1 |
| 20260904132850 | 73 | 295 | 5.0 | 9.0 | 0.00 | 0.32 | 0.32 | 94 | 1012.2 |
| 20260904132340 | 73 | 315 | 3.0 | 10.0 | 0.00 | 0.32 | 0.32 | 94 | 1012.2 |
| 20260904131850 | 73 | 15 | 4.0 | 10.0 | 0.00 | 0.32 | 0.32 | 95 | 1012.2 |
| 20260904131617 | 72 | 324 | 3.0 | 9.0 | 0.00 | 0.32 | 0.32 | 95 | 1011.5 |
| 20260904131604 | 72 | 298 | 2.0 | 9.0 | 0.00 | 0.32 | 0.32 | 94 | 1011.9 |
| 20260904131340 | 73 | 341 | 2.0 | 8.0 | 0.00 | 0.32 | 0.32 | 95 | 1012.1 |
| 20260904130851 | 73 | 43 | 2.0 | 8.0 | 0.00 | 0.32 | 0.32 | 95 | 1012.2 |
| 20260904130340 | 72 | 311 | 2.0 | 8.0 | 0.00 | 0.32 | 0.32 | 95 | 1012.2 |
| 20260904130106 | 72 | 15 | 1.0 | 8.0 | 0.00 | 0.32 | 0.32 | 95 | 1011.5 |
| 20260904130053 | 72 | 310 | 3.0 | 8.0 | 0.00 | 0.32 | 0.32 | 94 | 1012.1 |
| 20260904125909 | 72 | 289 | 4.0 | 8.0 | 0.00 | 0.32 | 0.32 | 95 | 1012.3 |
| 20260904125338 | 72 | 351 | 2.0 | 8.0 | 0.00 | 0.32 | 0.32 | 95 | 1012.3 |
| 20260904124849 | 72 | 304 | 2.0 | 5.0 | 0.00 | 0.32 | 0.32 | 95 | 1012.3 |
| 20260904124627 | 71 | 316 | 1.0 | 8.0 | 0.00 | 0.32 | 0.32 | 95 | 1011.6 |
| 20260904124551 | 71 | 284 | 2.0 | 8.0 | 0.00 | 0.32 | 0.32 | 94 | 1012.1 |
| 20260904124340 | 72 | 360 | 2.0 | 8.0 | 0.00 | 0.32 | 0.32 | 95 | 1012.2 |
| 20260904123851 | 71 | 20 | 2.0 | 8.0 | 0.00 | 0.32 | 0.32 | 95 | 1012.1 |
| 20260904123340 | 71 | 10 | 2.0 | 5.0 | 0.00 | 0.32 | 0.32 | 95 | 1012.2 |
| 20260904123111 | 71 | 25 | 2.0 | 9.0 | 0.00 | 0.32 | 0.32 | 95 | 1011.5 |
| 20260904123056 | 71 | 0 | 2.0 | 9.0 | 0.00 | 0.32 | 0.32 | 94 | 1012.0 |
| 20260904122909 | 71 | 318 | 2.0 | 9.0 | 0.00 | 0.32 | 0.32 | 95 | 1012.2 |
| 20260904122337 | 71 | 26 | 3.0 | 9.0 | 0.00 | 0.32 | 0.32 | 95 | 1012.1 |
| 20260904121846 | 71 | 17 | 3.0 | 7.0 | 0.00 | 0.32 | 0.32 | 95 | 1012.3 |
| 20260904121617 | 70 | 260 | 1.0 | 6.0 | 0.00 | 0.32 | 0.32 | 95 | 1011.6 |
| 20260904121552 | 70 | 316 | 1.0 | 6.0 | 0.00 | 0.32 | 0.32 | 94 | 1012.0 |
| 20260904121336 | 71 | 334 | 3.0 | 6.0 | 0.00 | 0.32 | 0.32 | 95 | 1012.2 |
| 20260904120845 | 71 | 10 | 2.0 | 6.0 | 0.00 | 0.32 | 0.32 | 95 | 1012.2 |
| 20260904120356 | 71 | 360 | 2.0 | 5.0 | 0.00 | 0.32 | 0.32 | 95 | 1012.2 |
| 20260904120047 | 70 | 0 | 1.0 | 5.0 | 0.00 | 0.32 | 0.32 | 94 | 1011.9 |
| 20260904120005 | 70 | 360 | 1.0 | 5.0 | 0.00 | 0.32 | 0.32 | 95 | 1011.4 |
| 20260904115903 | 70 | 34 | 2.0 | 5.0 | 0.00 | 0.32 | 0.32 | 95 | 1012.1 |
| 20260904115352 | 70 | 303 | 2.0 | 6.0 | 0.00 | 0.32 | 0.32 | 95 | 1012.1 |
| 20260904114843 | 70 | 20 | 3.0 | 6.0 | 0.00 | 0.32 | 0.32 | 95 | 1012.2 |
| 20260904114612 | 70 | 360 | 1.0 | 7.0 | 0.00 | 0.32 | 0.32 | 95 | 1011.6 |
| 20260904114553 | 70 | 325 | 1.0 | 7.0 | 0.00 | 0.32 | 0.32 | 94 | 1012.1 |
| 20260904114354 | 70 | 300 | 1.0 | 7.0 | 0.00 | 0.32 | 0.32 | 95 | 1012.3 |
| 20260904113844 | 70 | 290 | 3.0 | 5.0 | 0.00 | 0.32 | 0.32 | 95 | 1012.1 |
| 20260904113340 | 70 | 301 | 2.0 | 4.0 | 0.00 | 0.32 | 0.32 | 95 | 1012.0 |
| 20260904113123 | 69 | 292 | 1.0 | 2.0 | 0.00 | 0.32 | 0.32 | 95 | 1011.2 |
| 20260904113055 | 69 | 292 | 0.0 | 3.0 | 0.00 | 0.32 | 0.32 | 94 | 1011.7 |
| 20260904112846 | 70 | 302 | 1.0 | 3.0 | 0.00 | 0.32 | 0.32 | 95 | 1011.8 |
| 20260904112413 | 70 | 290 | 1.0 | 3.0 | 0.00 | 0.32 | 0.32 | 95 | 1011.8 |
| 20260904111845 | 70 | 319 | 1.0 | 6.0 | 0.00 | 0.32 | 0.32 | 95 | 1011.7 |
| 20260904111610 | 69 | 344 | 1.0 | 6.0 | 0.00 | 0.32 | 0.32 | 95 | 1011.1 |
| 20260904111550 | 69 | 355 | 1.0 | 6.0 | 0.00 | 0.32 | 0.32 | 94 | 1011.6 |
| 20260904111355 | 70 | 317 | 2.0 | 6.0 | 0.00 | 0.32 | 0.32 | 95 | 1011.8 |
| 20260904110843 | 69 | 28 | 2.0 | 3.0 | 0.00 | 0.32 | 0.32 | 95 | 1011.6 |
| 20260904110414 | 69 | 288 | 1.0 | 6.0 | 0.00 | 0.32 | 0.32 | 95 | 1011.7 |
| 20260904110116 | 69 | 360 | 0.0 | 6.0 | 0.00 | 0.32 | 0.32 | 95 | 1011.1 |
| 20260904110049 | 69 | 324 | 1.0 | 6.0 | 0.00 | 0.32 | 0.32 | 94 | 1011.6 |
| 20260904105841 | 69 | 323 | 2.0 | 6.0 | 0.00 | 0.32 | 0.32 | 95 | 1011.7 |
| 20260904105412 | 69 | 296 | 2.0 | 4.0 | 0.00 | 0.32 | 0.32 | 95 | 1011.8 |
| 20260904104843 | 69 | 267 | 1.0 | 5.0 | 0.00 | 0.32 | 0.32 | 95 | 1011.8 |
| 20260904104610 | 69 | 293 | 0.0 | 5.0 | 0.00 | 0.32 | 0.32 | 95 | 1011.2 |
| 20260904104558 | 69 | 0 | 1.0 | 6.0 | 0.00 | 0.32 | 0.32 | 94 | 1011.6 |
| 20260904104352 | 69 | 346 | 2.0 | 5.0 | 0.00 | 0.32 | 0.32 | 95 | 1011.8 |
| 20260904103900 | 70 | 306 | 2.0 | 4.0 | 0.00 | 0.32 | 0.32 | 95 | 1011.6 |
| 20260904103412 | 70 | 320 | 0.0 | 1.0 | 0.00 | 0.32 | 0.32 | 95 | 1011.6 |
| 20260904103110 | 69 | 5 | 0.0 | 1.0 | 0.00 | 0.32 | 0.32 | 95 | 1010.9 |
| 20260904103057 | 69 | 0 | 0.0 | 1.0 | 0.00 | 0.32 | 0.32 | 94 | 1011.4 |
| 20260904102836 | 70 | 5 | 0.0 | 1.0 | 0.00 | 0.32 | 0.32 | 95 | 1011.5 |
| 20260904102346 | 70 | 317 | 0.0 | 4.0 | 0.00 | 0.32 | 0.32 | 95 | 1011.5 |
| 20260904101841 | 70 | 313 | 1.0 | 4.0 | 0.00 | 0.32 | 0.32 | 95 | 1011.4 |
| 20260904101607 | 69 | 277 | 0.0 | 4.0 | 0.00 | 0.32 | 0.32 | 95 | 1010.8 |
| 20260904101559 | 69 | 0 | 1.0 | 4.0 | 0.00 | 0.32 | 0.32 | 94 | 1011.2 |
| 20260904101353 | 70 | 21 | 2.0 | 4.0 | 0.00 | 0.32 | 0.32 | 95 | 1011.4 |
| 20260904100842 | 70 | 298 | 1.0 | 3.0 | 0.00 | 0.32 | 0.32 | 95 | 1011.4 |
| 20260904100353 | 70 | 265 | 1.0 | 2.0 | 0.00 | 0.32 | 0.32 | 95 | 1011.3 |
| 20260904100115 | 70 | 254 | 0.0 | 2.0 | 0.00 | 0.32 | 0.32 | 95 | 1010.7 |
| 20260904100058 | 70 | 0 | 0.0 | 2.0 | 0.00 | 0.32 | 0.32 | 94 | 1011.1 |
| 20260904095838 | 70 | 5 | 0.0 | 1.0 | 0.00 | 0.32 | 0.32 | 95 | 1011.2 |
| 20260904095349 | 70 | 5 | 0.0 | 3.0 | 0.00 | 0.32 | 0.32 | 95 | 1011.2 |
| 20260904094841 | 71 | 5 | 0.0 | 3.0 | 0.00 | 0.32 | 0.32 | 95 | 1011.0 |
| 20260904094609 | 70 | 293 | 0.0 | 3.0 | 0.00 | 0.32 | 0.32 | 95 | 1010.4 |
| 20260904094605 | 70 | 0 | 1.0 | 3.0 | 0.00 | 0.32 | 0.32 | 94 | 1010.8 |
| 20260904094351 | 71 | 288 | 1.0 | 2.0 | 0.00 | 0.32 | 0.32 | 95 | 1011.0 |
| 20260904093842 | 71 | 331 | 0.0 | 1.0 | 0.00 | 0.32 | 0.32 | 95 | 1011.0 |
| 20260904093353 | 71 | 331 | 0.0 | 1.0 | 0.00 | 0.32 | 0.32 | 95 | 1011.0 |
| 20260904093120 | 71 | 331 | 0.0 | 1.0 | 0.00 | 0.32 | 0.32 | 95 | 1010.4 |
| 20260904093054 | 71 | 331 | 0.0 | 1.0 | 0.00 | 0.32 | 0.32 | 94 | 1010.8 |
| 20260904092840 | 71 | 331 | 0.0 | 1.0 | 0.00 | 0.32 | 0.32 | 95 | 1011.0 |
| 20260904092351 | 71 | 355 | 0.0 | 1.0 | 0.00 | 0.32 | 0.32 | 95 | 1010.9 |
| 20260904091842 | 71 | 355 | 0.0 | 1.0 | 0.00 | 0.32 | 0.32 | 95 | 1010.9 |
| 20260904091610 | 71 | 311 | 0.0 | 1.0 | 0.00 | 0.32 | 0.32 | 95 | 1010.3 |
| 20260904091606 | 71 | 0 | 0.0 | 1.0 | 0.00 | 0.32 | 0.32 | 94 | 1010.7 |
| 20260904091353 | 71 | 311 | 0.0 | 1.0 | 0.00 | 0.32 | 0.32 | 95 | 1011.0 |
| 20260904090843 | 71 | 311 | 0.0 | 1.0 | 0.00 | 0.32 | 0.32 | 95 | 1011.0 |
| 20260904090353 | 72 | 311 | 0.0 | 1.0 | 0.00 | 0.32 | 0.32 | 95 | 1010.9 |
| 20260904090117 | 71 | 311 | 0.0 | 1.0 | 0.00 | 0.32 | 0.32 | 95 | 1010.2 |
| 20260904090056 | 71 | 0 | 0.0 | 1.0 | 0.00 | 0.32 | 0.32 | 94 | 1010.7 |
| 20260904085838 | 72 | 311 | 0.0 | 1.0 | 0.00 | 0.32 | 0.32 | 95 | 1010.9 |
| 20260904085349 | 72 | 311 | 0.0 | 2.0 | 0.00 | 0.32 | 0.32 | 95 | 1010.9 |
| 20260904084838 | 72 | 308 | 0.0 | 2.0 | 0.00 | 0.32 | 0.32 | 95 | 1011.0 |
| 20260904084611 | 72 | 308 | 0.0 | 2.0 | 0.00 | 0.32 | 0.32 | 95 | 1010.3 |
| 20260904084556 | 72 | 308 | 0.0 | 2.0 | 0.00 | 0.32 | 0.32 | 94 | 1010.8 |
| 20260904084349 | 72 | 294 | 0.0 | 1.0 | 0.00 | 0.32 | 0.32 | 95 | 1010.8 |
| 20260904083840 | 72 | 294 | 0.0 | 1.0 | 0.00 | 0.32 | 0.32 | 95 | 1010.7 |
| 20260904083353 | 72 | 294 | 0.0 | 1.0 | 0.01 | 0.32 | 0.32 | 95 | 1010.7 |
| 20260904083120 | 72 | 294 | 0.0 | 1.0 | 0.01 | 0.32 | 0.32 | 95 | 1010.1 |
| 20260904083059 | 72 | 294 | 0.0 | 3.0 | 0.01 | 0.32 | 0.32 | 94 | 1010.6 |
| 20260904082844 | 72 | 294 | 0.0 | 3.0 | 0.01 | 0.32 | 0.32 | 95 | 1010.8 |
| 20260904082354 | 72 | 294 | 0.0 | 3.0 | 0.01 | 0.32 | 0.32 | 95 | 1010.9 |
| 20260904081904 | 72 | 300 | 1.0 | 3.0 | 0.02 | 0.32 | 0.32 | 95 | 1010.7 |
| 20260904081604 | 72 | 131 | 0.0 | 2.0 | 0.02 | 0.32 | 0.32 | 95 | 1010.0 |
| 20260904081552 | 72 | 0 | 0.0 | 2.0 | 0.02 | 0.32 | 0.32 | 94 | 1010.4 |
| 20260904081330 | 73 | 131 | 0.0 | 2.0 | 0.02 | 0.32 | 0.32 | 95 | 1010.5 |
| 20260904080853 | 73 | 54 | 1.0 | 3.0 | 0.02 | 0.32 | 0.32 | 95 | 1010.4 |
| 20260904080344 | 73 | 13 | 0.0 | 5.0 | 0.02 | 0.32 | 0.32 | 95 | 1010.5 |
| 20260904080104 | 72 | 13 | 0.0 | 5.0 | 0.02 | 0.32 | 0.32 | 95 | 1009.8 |
| 20260904080049 | 73 | 0 | 2.0 | 5.0 | 0.02 | 0.32 | 0.32 | 94 | 1010.3 |
| 20260904075851 | 73 | 24 | 2.0 | 5.0 | 0.02 | 0.34 | 0.32 | 95 | 1010.5 |
| 20260904075340 | 73 | 355 | 0.0 | 6.0 | 0.02 | 0.34 | 0.32 | 95 | 1010.6 |
| 20260904074849 | 74 | 302 | 1.0 | 6.0 | 0.02 | 0.34 | 0.32 | 95 | 1010.7 |
| 20260904074614 | 73 | 296 | 2.0 | 6.0 | 0.02 | 0.34 | 0.32 | 95 | 1010.2 |
| 20260904074553 | 73 | 348 | 1.0 | 7.0 | 0.02 | 0.34 | 0.32 | 94 | 1010.8 |
| 20260904074357 | 74 | 286 | 1.0 | 7.0 | 0.02 | 0.34 | 0.32 | 95 | 1011.0 |
| 20260904073907 | 74 | 275 | 3.0 | 7.0 | 0.02 | 0.34 | 0.32 | 95 | 1011.3 |
| 20260904073357 | 74 | 313 | 1.0 | 4.0 | 0.01 | 0.33 | 0.31 | 95 | 1011.2 |
| 20260904073115 | 73 | 317 | 1.0 | 4.0 | 0.01 | 0.33 | 0.31 | 95 | 1010.5 |
| 20260904073108 | 73 | 321 | 1.0 | 4.0 | 0.01 | 0.33 | 0.31 | 94 | 1010.9 |
| 20260904072841 | 74 | 349 | 1.0 | 4.0 | 0.01 | 0.33 | 0.31 | 95 | 1011.0 |
| 20260904072351 | 74 | 297 | 1.0 | 2.0 | 0.01 | 0.33 | 0.31 | 95 | 1011.0 |
| 20260904071838 | 74 | 344 | 1.0 | 3.0 | 0.00 | 0.32 | 0.30 | 95 | 1010.9 |
| 20260904071606 | 73 | 315 | 0.0 | 4.0 | 0.00 | 0.32 | 0.30 | 95 | 1010.3 |
| 20260904071554 | 73 | 15 | 1.0 | 4.0 | 0.00 | 0.32 | 0.30 | 94 | 1010.8 |
| 20260904071350 | 74 | 11 | 1.0 | 4.0 | 0.01 | 0.32 | 0.30 | 95 | 1010.9 |
| 20260904070840 | 74 | 13 | 2.0 | 3.0 | 0.06 | 0.32 | 0.30 | 95 | 1010.9 |
| 20260904070352 | 74 | 355 | 0.0 | 1.0 | 0.10 | 0.32 | 0.30 | 95 | 1010.6 |
| 20260904070118 | 73 | 355 | 0.0 | 1.0 | 0.11 | 0.32 | 0.30 | 95 | 1010.0 |
| 20260904070049 | 73 | 0 | 0.0 | 1.0 | 0.11 | 0.32 | 0.30 | 94 | 1010.4 |
| 20260904065838 | 74 | 355 | 0.0 | 1.0 | 0.11 | 0.33 | 0.30 | 95 | 1010.8 |
| 20260904065349 | 74 | 355 | 0.0 | 0.0 | 0.11 | 0.33 | 0.30 | 95 | 1010.7 |
| 20260904064839 | 74 | 355 | 0.0 | 0.0 | 0.11 | 0.33 | 0.30 | 95 | 1010.8 |
| 20260904064607 | 73 | 355 | 0.0 | 0.0 | 0.11 | 0.33 | 0.30 | 95 | 1010.3 |
| 20260904064546 | 73 | 0 | 0.0 | 1.0 | 0.11 | 0.33 | 0.30 | 94 | 1010.7 |
| 20260904064349 | 74 | 355 | 0.0 | 1.0 | 0.11 | 0.33 | 0.30 | 95 | 1010.9 |
| 20260904063841 | 74 | 355 | 0.0 | 1.0 | 0.11 | 0.33 | 0.30 | 95 | 1011.1 |
| 20260904063353 | 74 | 341 | 1.0 | 1.0 | 0.11 | 0.33 | 0.30 | 95 | 1011.1 |
| 20260904063118 | 73 | 236 | 0.0 | 1.0 | 0.11 | 0.33 | 0.30 | 95 | 1010.6 |
| 20260904063104 | 73 | 0 | 0.0 | 2.0 | 0.11 | 0.33 | 0.30 | 94 | 1011.1 |
| 20260904062840 | 74 | 236 | 0.0 | 2.0 | 0.11 | 0.33 | 0.30 | 95 | 1011.3 |
| 20260904062351 | 74 | 236 | 0.0 | 2.0 | 0.11 | 0.33 | 0.30 | 95 | 1011.4 |
| 20260904061842 | 74 | 5 | 0.0 | 1.0 | 0.11 | 0.33 | 0.30 | 95 | 1011.4 |
| 20260904061610 | 73 | 5 | 0.0 | 2.0 | 0.11 | 0.33 | 0.30 | 95 | 1010.9 |
| 20260904061552 | 73 | 5 | 0.0 | 3.0 | 0.11 | 0.33 | 0.30 | 94 | 1011.3 |
| 20260904061352 | 74 | 5 | 0.0 | 3.0 | 0.10 | 0.32 | 0.29 | 95 | 1011.4 |
| 20260904060902 | 74 | 230 | 1.0 | 3.0 | 0.06 | 0.25 | 0.22 | 95 | 1011.5 |
| 20260904060354 | 74 | 274 | 0.0 | 2.0 | 0.11 | 0.22 | 0.19 | 95 | 1011.3 |
| 20260904060119 | 73 | 274 | 0.0 | 2.0 | 0.14 | 0.22 | 0.19 | 95 | 1010.8 |
| 20260904060059 | 73 | 274 | 0.0 | 3.0 | 0.14 | 0.22 | 0.19 | 94 | 1011.3 |
| 20260904055840 | 74 | 274 | 1.0 | 3.0 | 0.15 | 0.32 | 0.19 | 95 | 1011.5 |
| 20260904055351 | 74 | 5 | 1.0 | 3.0 | 0.18 | 0.32 | 0.19 | 95 | 1011.5 |
| 20260904054842 | 74 | 274 | 0.0 | 1.0 | 0.19 | 0.32 | 0.19 | 95 | 1011.6 |
| 20260904054616 | 73 | 124 | 0.0 | 1.0 | 0.19 | 0.32 | 0.19 | 94 | 1011.5 |
| 20260904054611 | 73 | 274 | 0.0 | 1.0 | 0.19 | 0.32 | 0.19 | 94 | 1011.0 |
| 20260904054412 | 74 | 124 | 0.0 | 0.0 | 0.19 | 0.32 | 0.19 | 94 | 1011.6 |
| 20260904053842 | 74 | 124 | 0.0 | 1.0 | 0.19 | 0.32 | 0.19 | 94 | 1011.7 |
| 20260904053355 | 74 | 124 | 0.0 | 2.0 | 0.19 | 0.32 | 0.19 | 94 | 1011.8 |
| 20260904053119 | 73 | 124 | 0.0 | 2.0 | 0.19 | 0.32 | 0.19 | 94 | 1011.2 |
| 20260904053055 | 73 | 0 | 0.0 | 2.0 | 0.19 | 0.32 | 0.19 | 94 | 1011.7 |
| 20260904052846 | 74 | 124 | 1.0 | 2.0 | 0.19 | 0.32 | 0.19 | 94 | 1011.9 |
| 20260904052354 | 74 | 53 | 1.0 | 2.0 | 0.19 | 0.32 | 0.19 | 94 | 1011.9 |
| 20260904051843 | 74 | 40 | 0.0 | 2.0 | 0.19 | 0.32 | 0.19 | 94 | 1011.9 |
| 20260904051609 | 73 | 40 | 1.0 | 7.0 | 0.19 | 0.32 | 0.19 | 94 | 1011.2 |
| 20260904051553 | 73 | 40 | 0.0 | 7.0 | 0.19 | 0.32 | 0.19 | 94 | 1011.7 |
| 20260904051351 | 74 | 182 | 1.0 | 7.0 | 0.19 | 0.32 | 0.19 | 94 | 1011.8 |
| 20260904050839 | 74 | 317 | 3.0 | 7.0 | 0.15 | 0.28 | 0.15 | 94 | 1012.2 |
| 20260904050349 | 73 | 304 | 1.0 | 3.0 | 0.07 | 0.20 | 0.07 | 94 | 1012.2 |
| 20260904050108 | 73 | 237 | 0.0 | 2.0 | 0.05 | 0.18 | 0.05 | 94 | 1011.6 |
| 20260904050043 | 73 | 0 | 0.0 | 1.0 | 0.04 | 0.17 | 0.04 | 93 | 1012.0 |
| 20260904045855 | 73 | 45 | 0.0 | 1.0 | 0.03 | 0.19 | 0.03 | 94 | 1012.1 |
| 20260904045343 | 73 | 45 | 0.0 | 0.0 | 0.00 | 0.16 | 0.00 | 94 | 1012.1 |
| 20260904044852 | 73 | 45 | 0.0 | 0.0 | 0.00 | 0.16 | 0.00 | 94 | 1012.1 |
| 20260904044615 | 73 | 45 | 0.0 | 0.0 | 0.00 | 0.16 | 0.00 | 94 | 1011.4 |
| 20260904044553 | 73 | 0 | 0.0 | 0.0 | 0.00 | 0.16 | 0.00 | 93 | 1011.9 |
| 20260904044341 | 73 | 45 | 0.0 | 0.0 | 0.00 | 0.16 | 0.00 | 94 | 1012.1 |
| 20260904043913 | 73 | 45 | 0.0 | 0.0 | 0.00 | 0.16 | 0.00 | 94 | 1012.1 |
| 20260904043342 | 73 | 45 | 0.0 | 0.0 | 0.00 | 0.16 | 0.00 | 94 | 1012.1 |
| 20260904043108 | 73 | 45 | 0.0 | 0.0 | 0.00 | 0.16 | 0.00 | 94 | 1011.5 |
| 20260904043054 | 73 | 0 | 0.0 | 0.0 | 0.00 | 0.16 | 0.00 | 93 | 1011.9 |
| 20260904042849 | 73 | 45 | 0.0 | 0.0 | 0.00 | 0.16 | 0.00 | 94 | 1012.2 |
| 20260904042339 | 74 | 45 | 0.0 | 0.0 | 0.00 | 0.16 | 0.00 | 94 | 1012.3 |
| 20260904041850 | 73 | 45 | 0.0 | 0.0 | 0.00 | 0.16 | 0.00 | 94 | 1012.3 |
| 20260904041619 | 73 | 45 | 0.0 | 0.0 | 0.00 | 0.16 | 0.00 | 94 | 1011.7 |
| 20260904041545 | 73 | 0 | 0.0 | 0.0 | 0.00 | 0.16 | 0.00 | 93 | 1012.2 |
| 20260904041340 | 74 | 45 | 0.0 | 0.0 | 0.00 | 0.16 | 0.00 | 94 | 1012.4 |
| 20260904040851 | 74 | 45 | 0.0 | 0.0 | 0.00 | 0.16 | 0.00 | 94 | 1012.4 |
| 20260904040342 | 74 | 45 | 0.0 | 0.0 | 0.00 | 0.16 | 0.00 | 94 | 1012.4 |
| 20260904040111 | 73 | 45 | 0.0 | 0.0 | 0.00 | 0.16 | 0.00 | 94 | 1011.8 |
| 20260904040043 | 73 | 0 | 0.0 | 0.0 | 0.00 | 0.16 | 0.00 | 93 | 1012.2 |
| 20260904035910 | 74 | 45 | 0.0 | 0.0 | 0.00 | 0.16 | 0.16 | 94 | 1012.4 |
| 20260904035340 | 74 | 45 | 0.0 | 0.0 | 0.00 | 0.16 | 0.16 | 94 | 1012.3 |
| 20260904034851 | 74 | 45 | 0.0 | 1.0 | 0.00 | 0.16 | 0.16 | 94 | 1012.3 |
| 20260904034619 | 73 | 45 | 0.0 | 1.0 | 0.00 | 0.16 | 0.16 | 94 | 1011.7 |
| 20260904034553 | 73 | 0 | 0.0 | 1.0 | 0.00 | 0.16 | 0.16 | 93 | 1012.2 |
| 20260904034340 | 74 | 45 | 0.0 | 1.0 | 0.00 | 0.16 | 0.16 | 94 | 1012.3 |
| 20260904033851 | 74 | 45 | 1.0 | 1.0 | 0.00 | 0.16 | 0.16 | 94 | 1012.4 |
| 20260904033343 | 74 | 45 | 0.0 | 1.0 | 0.00 | 0.16 | 0.16 | 94 | 1012.3 |
| 20260904033108 | 73 | 45 | 0.0 | 1.0 | 0.00 | 0.16 | 0.16 | 94 | 1011.8 |
| 20260904033051 | 73 | 0 | 0.0 | 4.0 | 0.00 | 0.16 | 0.16 | 93 | 1012.2 |
| 20260904032850 | 74 | 45 | 0.0 | 1.0 | 0.00 | 0.16 | 0.16 | 94 | 1012.3 |
| 20260904032342 | 74 | 45 | 0.0 | 4.0 | 0.00 | 0.16 | 0.16 | 94 | 1012.3 |
| 20260904031852 | 74 | 348 | 1.0 | 5.0 | 0.00 | 0.16 | 0.16 | 94 | 1012.5 |
| 20260904031620 | 73 | 54 | 1.0 | 5.0 | 0.00 | 0.16 | 0.16 | 94 | 1011.9 |
| 20260904031544 | 73 | 38 | 1.0 | 5.0 | 0.00 | 0.16 | 0.16 | 93 | 1012.3 |
| 20260904031342 | 74 | 18 | 3.0 | 5.0 | 0.00 | 0.16 | 0.16 | 94 | 1012.5 |
| 20260904030853 | 74 | 266 | 1.0 | 2.0 | 0.00 | 0.16 | 0.16 | 94 | 1012.4 |
| 20260904030343 | 74 | 266 | 0.0 | 0.0 | 0.00 | 0.16 | 0.16 | 94 | 1012.4 |
| 20260904030108 | 73 | 266 | 0.0 | 0.0 | 0.00 | 0.16 | 0.16 | 94 | 1011.9 |
| 20260904030044 | 73 | 0 | 0.0 | 0.0 | 0.00 | 0.16 | 0.16 | 93 | 1012.4 |
| 20260904025911 | 74 | 266 | 0.0 | 0.0 | 0.00 | 0.16 | 0.16 | 94 | 1012.5 |
| 20260904025340 | 74 | 266 | 0.0 | 0.0 | 0.00 | 0.16 | 0.16 | 94 | 1012.5 |
| 20260904024850 | 74 | 266 | 0.0 | 1.0 | 0.00 | 0.16 | 0.16 | 93 | 1012.7 |
| 20260904024621 | 73 | 266 | 0.0 | 1.0 | 0.00 | 0.16 | 0.16 | 93 | 1012.1 |
| 20260904024559 | 73 | 0 | 0.0 | 1.0 | 0.00 | 0.16 | 0.16 | 93 | 1012.5 |
| 20260904024345 | 74 | 266 | 0.0 | 1.0 | 0.00 | 0.16 | 0.16 | 93 | 1012.7 |
| 20260904023852 | 74 | 266 | 0.0 | 1.0 | 0.00 | 0.16 | 0.16 | 93 | 1012.8 |
| 20260904023341 | 74 | 266 | 0.0 | 1.0 | 0.00 | 0.16 | 0.16 | 93 | 1012.8 |
| 20260904023121 | 73 | 266 | 0.0 | 1.0 | 0.00 | 0.16 | 0.16 | 93 | 1012.2 |
| 20260904023051 | 73 | 0 | 0.0 | 1.0 | 0.00 | 0.16 | 0.16 | 93 | 1012.8 |
| 20260904022848 | 74 | 266 | 0.0 | 1.0 | 0.00 | 0.16 | 0.16 | 93 | 1012.8 |
| 20260904022335 | 74 | 266 | 0.0 | 1.0 | 0.00 | 0.16 | 0.16 | 93 | 1013.0 |
| 20260904021846 | 74 | 266 | 0.0 | 0.0 | 0.00 | 0.16 | 0.16 | 93 | 1013.0 |
| 20260904021608 | 73 | 266 | 0.0 | 0.0 | 0.00 | 0.16 | 0.16 | 93 | 1012.6 |
| 20260904021546 | 73 | 0 | 0.0 | 0.0 | 0.00 | 0.16 | 0.16 | 93 | 1013.1 |
| 20260904021354 | 74 | 266 | 0.0 | 0.0 | 0.00 | 0.16 | 0.16 | 93 | 1013.2 |
| 20260904020840 | 74 | 266 | 0.0 | 0.0 | 0.00 | 0.16 | 0.16 | 93 | 1013.3 |
| 20260904020411 | 74 | 266 | 0.0 | 0.0 | 0.00 | 0.16 | 0.16 | 93 | 1013.3 |
| 20260904020108 | 73 | 266 | 0.0 | 0.0 | 0.00 | 0.16 | 0.16 | 93 | 1012.7 |
| 20260904020100 | 73 | 0 | 0.0 | 0.0 | 0.00 | 0.16 | 0.16 | 92 | 1013.2 |
| 20260904015835 | 74 | 266 | 0.0 | 0.0 | 0.00 | 0.16 | 0.16 | 93 | 1013.3 |
| 20260904015346 | 74 | 266 | 0.0 | 0.0 | 0.00 | 0.16 | 0.16 | 93 | 1013.5 |
| 20260904014909 | 74 | 266 | 0.0 | 1.0 | 0.00 | 0.16 | 0.16 | 93 | 1013.4 |
| 20260904014615 | 74 | 0 | 0.0 | 1.0 | 0.00 | 0.16 | 0.16 | 92 | 1013.2 |
| 20260904014356 | 74 | 266 | 0.0 | 1.0 | 0.00 | 0.16 | 0.16 | 93 | 1013.3 |
| 20260904013845 | 74 | 266 | 0.0 | 1.0 | 0.00 | 0.16 | 0.16 | 92 | 1013.3 |
| 20260904013353 | 74 | 266 | 0.0 | 0.0 | 0.00 | 0.16 | 0.16 | 93 | 1013.2 |
| 20260904013117 | 74 | 0 | 0.0 | 0.0 | 0.00 | 0.16 | 0.16 | 92 | 1013.1 |
| 20260904013111 | 74 | 266 | 0.0 | 0.0 | 0.00 | 0.16 | 0.16 | 93 | 1012.6 |
| 20260904012839 | 74 | 266 | 0.0 | 0.0 | 0.00 | 0.16 | 0.16 | 93 | 1013.2 |
| 20260904012349 | 74 | 266 | 0.0 | 0.0 | 0.00 | 0.16 | 0.16 | 92 | 1013.4 |
| 20260904011840 | 74 | 266 | 0.0 | 1.0 | 0.00 | 0.16 | 0.16 | 92 | 1013.4 |
| 20260904011608 | 74 | 266 | 0.0 | 1.0 | 0.00 | 0.16 | 0.16 | 92 | 1012.9 |
| 20260904011555 | 74 | 0 | 0.0 | 1.0 | 0.00 | 0.16 | 0.16 | 92 | 1013.4 |
| 20260904011351 | 75 | 266 | 0.0 | 1.0 | 0.00 | 0.16 | 0.16 | 92 | 1013.4 |
| 20260904010841 | 75 | 266 | 0.0 | 0.0 | 0.00 | 0.16 | 0.16 | 92 | 1013.3 |
| 20260904010353 | 75 | 266 | 0.0 | 0.0 | 0.00 | 0.16 | 0.16 | 92 | 1013.2 |
| 20260904010118 | 74 | 266 | 0.0 | 0.0 | 0.00 | 0.16 | 0.16 | 92 | 1012.5 |
| 20260904010057 | 74 | 0 | 0.0 | 0.0 | 0.00 | 0.16 | 0.16 | 91 | 1013.0 |
| 20260904005839 | 75 | 266 | 0.0 | 0.0 | 0.00 | 0.16 | 0.16 | 92 | 1013.1 |
| 20260904005349 | 75 | 266 | 0.0 | 0.0 | 0.00 | 0.16 | 0.16 | 92 | 1013.2 |
| 20260904004841 | 75 | 266 | 0.0 | 0.0 | 0.00 | 0.16 | 0.16 | 92 | 1013.2 |
| 20260904004609 | 75 | 266 | 0.0 | 1.0 | 0.00 | 0.16 | 0.16 | 92 | 1012.7 |
| 20260904004544 | 75 | 0 | 0.0 | 1.0 | 0.00 | 0.16 | 0.16 | 91 | 1013.2 |
| 20260904004413 | 75 | 266 | 0.0 | 1.0 | 0.00 | 0.16 | 0.16 | 92 | 1013.3 |
| 20260904003842 | 76 | 266 | 1.0 | 1.0 | 0.00 | 0.16 | 0.16 | 91 | 1013.3 |
| 20260904003415 | 76 | 266 | 0.0 | 1.0 | 0.00 | 0.16 | 0.16 | 91 | 1013.1 |
| 20260904003121 | 75 | 266 | 0.0 | 1.0 | 0.00 | 0.16 | 0.16 | 91 | 1012.5 |
| 20260904003103 | 75 | 0 | 0.0 | 1.0 | 0.00 | 0.16 | 0.16 | 91 | 1013.1 |
| 20260904002841 | 76 | 266 | 0.0 | 1.0 | 0.00 | 0.16 | 0.16 | 91 | 1013.1 |
| 20260904002350 | 76 | 266 | 0.0 | 0.0 | 0.00 | 0.16 | 0.16 | 91 | 1012.9 |
| 20260904001901 | 76 | 266 | 0.0 | 1.0 | 0.00 | 0.16 | 0.16 | 91 | 1012.9 |
| 20260904001609 | 76 | 266 | 0.0 | 1.0 | 0.00 | 0.16 | 0.16 | 91 | 1012.4 |
| 20260904001550 | 76 | 0 | 0.0 | 1.0 | 0.00 | 0.16 | 0.16 | 90 | 1012.9 |
| 20260904001351 | 76 | 266 | 0.0 | 0.0 | 0.00 | 0.16 | 0.16 | 91 | 1013.0 |
| 20260904000839 | 76 | 266 | 0.0 | 0.0 | 0.00 | 0.16 | 0.16 | 91 | 1012.9 |
| 20260904000350 | 77 | 266 | 0.0 | 0.0 | 0.00 | 0.16 | 0.16 | 91 | 1012.9 |
| 20260904000115 | 76 | 266 | 0.0 | 0.0 | 0.00 | 0.16 | 0.16 | 91 | 1012.4 |
| 20260904000051 | 76 | 0 | 0.0 | 0.0 | 0.00 | 0.16 | 0.16 | 90 | 1012.9 |
| 20260903235837 | 77 | 266 | 0.0 | 0.0 | 0.00 | 0.16 | 0.16 | 90 | 1012.9 |
| 20260903235349 | 77 | 266 | 0.0 | 0.0 | 0.00 | 0.16 | 0.16 | 90 | 1012.8 |
| 20260903234841 | 77 | 267 | 0.0 | 0.0 | 0.00 | 0.16 | 0.16 | 90 | 1012.8 |
| 20260903234608 | 77 | 266 | 0.0 | 0.0 | 0.00 | 0.16 | 0.16 | 90 | 1012.1 |
| 20260903234546 | 77 | 0 | 0.0 | 0.0 | 0.00 | 0.16 | 0.16 | 89 | 1012.7 |
| 20260903234350 | 77 | 266 | 0.0 | 0.0 | 0.00 | 0.16 | 0.16 | 90 | 1012.6 |
| 20260903233840 | 77 | 266 | 0.0 | 0.0 | 0.00 | 0.16 | 0.16 | 90 | 1012.6 |
| 20260903233412 | 78 | 266 | 0.0 | 1.0 | 0.00 | 0.16 | 0.16 | 90 | 1012.5 |
| 20260903233116 | 77 | 266 | 0.0 | 1.0 | 0.00 | 0.16 | 0.16 | 89 | 1011.9 |
| 20260903233059 | 77 | 0 | 0.0 | 1.0 | 0.00 | 0.16 | 0.16 | 89 | 1012.5 |
| 20260903232859 | 78 | 266 | 0.0 | 1.0 | 0.00 | 0.16 | 0.16 | 89 | 1012.5 |
| 20260903232348 | 78 | 266 | 0.0 | 0.0 | 0.00 | 0.16 | 0.16 | 89 | 1012.4 |
| 20260903231838 | 78 | 266 | 0.0 | 0.0 | 0.00 | 0.16 | 0.16 | 89 | 1012.4 |
| 20260903231611 | 78 | 266 | 0.0 | 0.0 | 0.00 | 0.16 | 0.16 | 89 | 1011.9 |
| 20260903231551 | 78 | 0 | 0.0 | 0.0 | 0.00 | 0.16 | 0.16 | 88 | 1012.5 |
| 20260903231348 | 79 | 266 | 0.0 | 0.0 | 0.00 | 0.16 | 0.16 | 89 | 1012.5 |
| 20260903230842 | 79 | 266 | 0.0 | 0.0 | 0.00 | 0.16 | 0.16 | 89 | 1012.5 |
| 20260903230352 | 79 | 266 | 0.0 | 0.0 | 0.00 | 0.16 | 0.16 | 88 | 1012.6 |
| 20260903230110 | 79 | 266 | 0.0 | 0.0 | 0.00 | 0.16 | 0.16 | 88 | 1011.9 |
| 20260903230045 | 79 | 0 | 0.0 | 1.0 | 0.00 | 0.16 | 0.16 | 88 | 1012.5 |
| 20260903225836 | 79 | 266 | 0.0 | 1.0 | 0.00 | 0.16 | 0.16 | 88 | 1012.6 |
| 20260903225348 | 80 | 266 | 0.0 | 1.0 | 0.00 | 0.16 | 0.16 | 88 | 1012.7 |
| 20260903224856 | 80 | 266 | 0.0 | 1.0 | 0.00 | 0.16 | 0.16 | 88 | 1012.7 |
| 20260903224618 | 80 | 266 | 0.0 | 0.0 | 0.00 | 0.16 | 0.16 | 88 | 1012.0 |
| 20260903224552 | 80 | 0 | 0.0 | 0.0 | 0.00 | 0.16 | 0.16 | 87 | 1012.7 |
| 20260903224343 | 80 | 266 | 0.0 | 0.0 | 0.00 | 0.16 | 0.16 | 88 | 1012.5 |
| 20260903223912 | 81 | 266 | 0.0 | 0.0 | 0.00 | 0.16 | 0.16 | 88 | 1012.7 |
| 20260903223342 | 81 | 266 | 0.0 | 0.0 | 0.00 | 0.16 | 0.16 | 87 | 1012.8 |
| 20260903223123 | 80 | 266 | 0.0 | 0.0 | 0.00 | 0.16 | 0.16 | 87 | 1012.2 |
| 20260903223104 | 80 | 0 | 0.0 | 1.0 | 0.00 | 0.16 | 0.16 | 87 | 1012.7 |
| 20260903222848 | 81 | 266 | 0.0 | 1.0 | 0.00 | 0.16 | 0.16 | 87 | 1012.7 |
| 20260903222337 | 81 | 266 | 0.0 | 1.0 | 0.00 | 0.16 | 0.16 | 87 | 1012.9 |
| 20260903221847 | 81 | 266 | 0.0 | 2.0 | 0.00 | 0.16 | 0.16 | 86 | 1012.9 |
| 20260903221609 | 81 | 266 | 0.0 | 2.0 | 0.00 | 0.16 | 0.16 | 86 | 1012.3 |
| 20260903221554 | 81 | 0 | 0.0 | 2.0 | 0.00 | 0.16 | 0.16 | 86 | 1012.9 |
| 20260903221355 | 81 | 266 | 0.0 | 2.0 | 0.00 | 0.16 | 0.16 | 86 | 1012.8 |
| 20260903220845 | 81 | 286 | 0.0 | 2.0 | 0.00 | 0.16 | 0.16 | 86 | 1012.8 |
| 20260903220357 | 82 | 286 | 1.0 | 2.0 | 0.00 | 0.16 | 0.16 | 86 | 1012.8 |
| 20260903220056 | 81 | 0 | 1.0 | 2.0 | 0.00 | 0.16 | 0.16 | 86 | 1012.8 |
| 20260903220005 | 81 | 257 | 1.0 | 2.0 | 0.00 | 0.16 | 0.16 | 87 | 1012.2 |
| 20260903215904 | 82 | 277 | 1.0 | 2.0 | 0.00 | 0.16 | 0.16 | 87 | 1012.8 |
| 20260903215353 | 82 | 292 | 0.0 | 2.0 | 0.00 | 0.16 | 0.16 | 86 | 1012.7 |
| 20260903214844 | 82 | 266 | 0.0 | 2.0 | 0.00 | 0.16 | 0.16 | 87 | 1012.7 |
| 20260903214611 | 81 | 266 | 0.0 | 2.0 | 0.00 | 0.16 | 0.16 | 86 | 1012.2 |
| 20260903214553 | 81 | 0 | 0.0 | 2.0 | 0.00 | 0.16 | 0.16 | 86 | 1012.7 |
| 20260903214355 | 82 | 266 | 0.0 | 2.0 | 0.00 | 0.16 | 0.16 | 87 | 1012.7 |
| 20260903213905 | 81 | 321 | 0.0 | 3.0 | 0.00 | 0.16 | 0.16 | 86 | 1012.8 |
| 20260903213356 | 81 | 321 | 1.0 | 3.0 | 0.00 | 0.16 | 0.16 | 83 | 1012.7 |
| 20260903213104 | 81 | 261 | 1.0 | 3.0 | 0.00 | 0.16 | 0.16 | 85 | 1012.1 |
| 20260903213050 | 81 | 233 | 0.0 | 3.0 | 0.00 | 0.16 | 0.16 | 85 | 1012.6 |
| 20260903212904 | 82 | 223 | 0.0 | 3.0 | 0.00 | 0.16 | 0.16 | 85 | 1012.7 |
| 20260903212353 | 82 | 10 | 0.0 | 1.0 | 0.00 | 0.16 | 0.16 | 85 | 1012.7 |
| 20260903211842 | 82 | 10 | 0.0 | 1.0 | 0.00 | 0.16 | 0.16 | 84 | 1012.7 |
| 20260903211613 | 82 | 10 | 0.0 | 1.0 | 0.00 | 0.16 | 0.16 | 83 | 1012.0 |
| 20260903211607 | 82 | 0 | 0.0 | 1.0 | 0.00 | 0.16 | 0.16 | 82 | 1012.5 |
| 20260903211414 | 83 | 10 | 0.0 | 1.0 | 0.00 | 0.16 | 0.16 | 83 | 1012.5 |
| 20260903210844 | 83 | 238 | 0.0 | 4.0 | 0.00 | 0.16 | 0.16 | 81 | 1012.6 |
| 20260903210353 | 83 | 317 | 2.0 | 4.0 | 0.00 | 0.16 | 0.16 | 79 | 1012.7 |
| 20260903210125 | 83 | 202 | 0.0 | 4.0 | 0.00 | 0.16 | 0.16 | 79 | 1012.2 |
| 20260903210057 | 83 | 300 | 0.0 | 4.0 | 0.00 | 0.16 | 0.16 | 78 | 1012.6 |
| 20260903205840 | 83 | 237 | 1.0 | 4.0 | 0.00 | 0.16 | 0.16 | 79 | 1012.7 |
| 20260903205412 | 83 | 209 | 1.0 | 4.0 | 0.00 | 0.16 | 0.16 | 79 | 1012.7 |
| 20260903204841 | 84 | 242 | 2.0 | 4.0 | 0.00 | 0.16 | 0.16 | 80 | 1012.8 |
| 20260903204620 | 83 | 205 | 0.0 | 3.0 | 0.00 | 0.16 | 0.16 | 80 | 1012.2 |
| 20260903204555 | 83 | 0 | 0.0 | 3.0 | 0.00 | 0.16 | 0.16 | 79 | 1012.6 |
| 20260903204351 | 84 | 214 | 1.0 | 3.0 | 0.00 | 0.16 | 0.16 | 77 | 1012.7 |
| 20260903203842 | 84 | 360 | 1.0 | 5.0 | 0.00 | 0.16 | 0.16 | 79 | 1012.7 |
| 20260903203353 | 84 | 301 | 3.0 | 5.0 | 0.00 | 0.16 | 0.16 | 77 | 1012.8 |
| 20260903203119 | 83 | 304 | 1.0 | 3.0 | 0.00 | 0.16 | 0.16 | 77 | 1012.3 |
| 20260903203049 | 83 | 0 | 1.0 | 3.0 | 0.00 | 0.16 | 0.16 | 77 | 1012.7 |
| 20260903202840 | 84 | 5 | 2.0 | 3.0 | 0.00 | 0.16 | 0.16 | 79 | 1012.8 |
| 20260903202349 | 84 | 267 | 0.0 | 4.0 | 0.00 | 0.16 | 0.16 | 80 | 1012.8 |
| 20260903201840 | 84 | 313 | 2.0 | 5.0 | 0.00 | 0.16 | 0.16 | 78 | 1012.8 |
| 20260903201608 | 83 | 283 | 1.0 | 5.0 | 0.00 | 0.16 | 0.16 | 77 | 1012.2 |
| 20260903201602 | 84 | 302 | 1.0 | 5.0 | 0.00 | 0.16 | 0.16 | 77 | 1012.7 |
| 20260903201351 | 84 | 273 | 1.0 | 5.0 | 0.00 | 0.16 | 0.16 | 78 | 1012.9 |
| 20260903200841 | 85 | 315 | 2.0 | 7.0 | 0.00 | 0.16 | 0.16 | 77 | 1013.0 |
| 20260903200352 | 85 | 293 | 2.0 | 8.0 | 0.00 | 0.16 | 0.16 | 75 | 1012.9 |
| 20260903200118 | 85 | 275 | 1.0 | 8.0 | 0.00 | 0.16 | 0.16 | 77 | 1012.4 |
| 20260903200044 | 85 | 267 | 2.0 | 8.0 | 0.00 | 0.16 | 0.16 | 76 | 1012.7 |
| 20260903195838 | 85 | 267 | 3.0 | 8.0 | 0.00 | 0.21 | 0.16 | 75 | 1012.9 |
| 20260903195350 | 86 | 300 | 1.0 | 3.0 | 0.00 | 0.21 | 0.16 | 80 | 1012.9 |
| 20260903194845 | 86 | 9 | 1.0 | 3.0 | 0.00 | 0.21 | 0.16 | 76 | 1012.9 |
| 20260903194608 | 85 | 308 | 0.0 | 3.0 | 0.00 | 0.21 | 0.16 | 77 | 1012.3 |
| 20260903194554 | 85 | 0 | 0.0 | 3.0 | 0.00 | 0.21 | 0.16 | 76 | 1012.8 |
| 20260903194354 | 86 | 249 | 1.0 | 3.0 | 0.00 | 0.21 | 0.16 | 76 | 1012.9 |
| 20260903193841 | 85 | 259 | 0.0 | 4.0 | 0.00 | 0.21 | 0.16 | 75 | 1013.0 |
| 20260903193352 | 86 | 35 | 2.0 | 9.0 | 0.00 | 0.21 | 0.16 | 75 | 1013.0 |
| 20260903193114 | 85 | 315 | 2.0 | 9.0 | 0.00 | 0.21 | 0.16 | 75 | 1012.6 |
| 20260903193050 | 85 | 273 | 1.0 | 9.0 | 0.00 | 0.21 | 0.16 | 76 | 1013.0 |
| 20260903192839 | 86 | 285 | 4.0 | 9.0 | 0.00 | 0.21 | 0.16 | 74 | 1013.1 |
| 20260903192349 | 87 | 333 | 2.0 | 8.0 | 0.00 | 0.21 | 0.16 | 71 | 1013.1 |
| 20260903191839 | 87 | 286 | 3.0 | 9.0 | 0.00 | 0.21 | 0.16 | 74 | 1013.0 |
| 20260903191601 | 86 | 259 | 3.0 | 9.0 | 0.00 | 0.21 | 0.16 | 74 | 1012.6 |
| 20260903191552 | 86 | 281 | 4.0 | 9.0 | 0.00 | 0.21 | 0.16 | 75 | 1012.9 |
| 20260903191409 | 86 | 313 | 6.0 | 9.0 | 0.00 | 0.21 | 0.16 | 73 | 1013.1 |
| 20260903190837 | 87 | 236 | 2.0 | 6.0 | 0.00 | 0.21 | 0.16 | 75 | 1013.1 |
| 20260903190349 | 86 | 277 | 1.0 | 6.0 | 0.00 | 0.21 | 0.16 | 76 | 1013.2 |
| 20260903190106 | 84 | 325 | 1.0 | 4.0 | 0.00 | 0.21 | 0.16 | 78 | 1012.7 |
| 20260903190054 | 84 | 240 | 1.0 | 4.0 | 0.00 | 0.21 | 0.16 | 82 | 1013.0 |
| 20260903185853 | 84 | 297 | 2.0 | 4.0 | 0.00 | 0.52 | 0.16 | 82 | 1013.3 |
| 20260903185344 | 84 | 272 | 1.0 | 4.0 | 0.00 | 0.52 | 0.16 | 81 | 1013.3 |
| 20260903184854 | 85 | 220 | 2.0 | 7.0 | 0.00 | 0.52 | 0.16 | 77 | 1013.4 |
| 20260903184558 | 83 | 360 | 2.0 | 7.0 | 0.00 | 0.52 | 0.16 | 79 | 1013.3 |
| 20260903184505 | 83 | 36 | 1.0 | 7.0 | 0.00 | 0.52 | 0.16 | 80 | 1012.9 |
| 20260903184404 | 82 | 308 | 3.0 | 7.0 | 0.00 | 0.52 | 0.16 | 80 | 1013.4 |
| 20260903183854 | 82 | 213 | 2.0 | 4.0 | 0.00 | 0.52 | 0.16 | 81 | 1013.4 |
| 20260903183347 | 82 | 327 | 0.0 | 5.0 | 0.00 | 0.52 | 0.16 | 82 | 1013.5 |
| 20260903183111 | 82 | 238 | 0.0 | 5.0 | 0.00 | 0.52 | 0.16 | 81 | 1013.0 |
| 20260903183052 | 83 | 329 | 1.0 | 5.0 | 0.00 | 0.52 | 0.16 | 81 | 1013.4 |
| 20260903182853 | 83 | 317 | 1.0 | 5.0 | 0.00 | 0.52 | 0.16 | 80 | 1013.5 |
| 20260903182344 | 84 | 35 | 1.0 | 7.0 | 0.00 | 0.52 | 0.16 | 80 | 1013.6 |
| 20260903181915 | 84 | 295 | 3.0 | 10.0 | 0.00 | 0.52 | 0.16 | 77 | 1013.6 |
| 20260903181604 | 84 | 186 | 2.0 | 10.0 | 0.00 | 0.52 | 0.16 | 76 | 1013.1 |
| 20260903181552 | 84 | 261 | 2.0 | 10.0 | 0.00 | 0.52 | 0.16 | 75 | 1013.4 |
| 20260903181344 | 85 | 349 | 2.0 | 10.0 | 0.00 | 0.52 | 0.16 | 75 | 1013.6 |
| 20260903180853 | 84 | 333 | 5.0 | 9.0 | 0.00 | 0.52 | 0.16 | 79 | 1013.6 |
| 20260903180343 | 84 | 211 | 2.0 | 5.0 | 0.00 | 0.52 | 0.16 | 78 | 1013.7 |
| 20260903180107 | 84 | 224 | 2.0 | 5.0 | 0.00 | 0.52 | 0.16 | 78 | 1013.1 |
| 20260903180046 | 84 | 256 | 1.0 | 9.0 | 0.00 | 0.52 | 0.16 | 77 | 1013.6 |
| 20260903175911 | 85 | 196 | 1.0 | 9.0 | 0.00 | 0.52 | 0.16 | 79 | 1013.6 |
| 20260903175340 | 83 | 345 | 3.0 | 9.0 | 0.00 | 0.52 | 0.16 | 78 | 1013.7 |
| 20260903174912 | 82 | 288 | 4.0 | 10.0 | 0.00 | 0.52 | 0.16 | 79 | 1013.8 |
| 20260903174618 | 82 | 327 | 2.0 | 10.0 | 0.00 | 0.52 | 0.16 | 80 | 1013.4 |
| 20260903174555 | 82 | 291 | 1.0 | 10.0 | 0.00 | 0.52 | 0.16 | 81 | 1013.8 |
| 20260903174340 | 82 | 249 | 2.0 | 10.0 | 0.00 | 0.52 | 0.16 | 79 | 1013.9 |
| 20260903173850 | 83 | 280 | 1.0 | 10.0 | 0.00 | 0.52 | 0.16 | 82 | 1014.0 |
| 20260903173341 | 83 | 32 | 5.0 | 10.0 | 0.00 | 0.52 | 0.16 | 77 | 1014.0 |
| 20260903173105 | 83 | 292 | 4.0 | 8.0 | 0.00 | 0.52 | 0.16 | 77 | 1013.6 |
| 20260903173058 | 83 | 283 | 3.0 | 8.0 | 0.00 | 0.52 | 0.16 | 76 | 1013.9 |
| 20260903172847 | 84 | 272 | 3.0 | 6.0 | 0.00 | 0.52 | 0.16 | 77 | 1014.2 |
| 20260903172337 | 83 | 255 | 3.0 | 8.0 | 0.00 | 0.52 | 0.16 | 80 | 1014.2 |
| 20260903171848 | 83 | 355 | 5.0 | 8.0 | 0.00 | 0.52 | 0.16 | 79 | 1014.3 |
| 20260903171617 | 82 | 279 | 3.0 | 7.0 | 0.00 | 0.52 | 0.16 | 80 | 1013.8 |
| 20260903171559 | 82 | 295 | 1.0 | 7.0 | 0.00 | 0.52 | 0.16 | 80 | 1014.0 |
| 20260903171338 | 83 | 221 | 2.0 | 7.0 | 0.00 | 0.52 | 0.16 | 80 | 1014.2 |
| 20260903170848 | 82 | 309 | 2.0 | 10.0 | 0.00 | 0.52 | 0.16 | 82 | 1014.2 |
| 20260903170339 | 80 | 318 | 3.0 | 10.0 | 0.00 | 0.52 | 0.16 | 83 | 1014.3 |
| 20260903170103 | 80 | 360 | 1.0 | 7.0 | 0.00 | 0.52 | 0.16 | 84 | 1013.9 |
| 20260903170046 | 80 | 344 | 1.0 | 7.0 | 0.00 | 0.52 | 0.16 | 84 | 1014.0 |
| 20260903165845 | 80 | 331 | 2.0 | 7.0 | 0.00 | 0.52 | 0.16 | 84 | 1014.3 |
| 20260903165335 | 81 | 333 | 0.0 | 7.0 | 0.00 | 0.52 | 0.16 | 84 | 1014.3 |
| 20260903164846 | 81 | 296 | 3.0 | 7.0 | 0.00 | 0.52 | 0.16 | 83 | 1014.3 |
| 20260903164615 | 80 | 306 | 2.0 | 5.0 | 0.00 | 0.52 | 0.16 | 83 | 1013.9 |
| 20260903164605 | 80 | 282 | 1.0 | 5.0 | 0.00 | 0.52 | 0.16 | 83 | 1014.1 |
| 20260903164342 | 81 | 311 | 2.0 | 5.0 | 0.00 | 0.52 | 0.16 | 84 | 1014.3 |
| 20260903163850 | 80 | 263 | 1.0 | 7.0 | 0.00 | 0.52 | 0.16 | 84 | 1014.3 |
| 20260903163339 | 80 | 294 | 3.0 | 7.0 | 0.00 | 0.52 | 0.16 | 86 | 1014.4 |
| 20260903163120 | 79 | 307 | 1.0 | 7.0 | 0.00 | 0.52 | 0.16 | 86 | 1014.0 |
| 20260903163053 | 79 | 0 | 2.0 | 7.0 | 0.00 | 0.52 | 0.16 | 85 | 1014.2 |
| 20260903162846 | 79 | 251 | 3.0 | 7.0 | 0.00 | 0.52 | 0.16 | 85 | 1014.6 |
| 20260903162356 | 79 | 256 | 2.0 | 8.0 | 0.00 | 0.52 | 0.16 | 86 | 1014.7 |
| 20260903161846 | 79 | 275 | 3.0 | 9.0 | 0.00 | 0.52 | 0.16 | 85 | 1014.7 |
| 20260903161609 | 78 | 257 | 2.0 | 11.0 | 0.00 | 0.52 | 0.16 | 85 | 1014.3 |
| 20260903161550 | 78 | 292 | 3.0 | 11.0 | 0.00 | 0.52 | 0.16 | 84 | 1014.3 |
| 20260903161336 | 79 | 295 | 5.0 | 11.0 | 0.00 | 0.52 | 0.16 | 84 | 1014.6 |
| 20260903160907 | 79 | 292 | 4.0 | 11.0 | 0.00 | 0.52 | 0.16 | 84 | 1014.7 |
| 20260903160355 | 79 | 281 | 3.0 | 9.0 | 0.00 | 0.52 | 0.16 | 87 | 1015.0 |
| 20260903160045 | 77 | 215 | 3.0 | 8.0 | 0.00 | 0.52 | 0.16 | 85 | 1014.5 |
| 20260903160005 | 78 | 234 | 3.0 | 8.0 | 0.00 | 0.52 | 0.16 | 86 | 1014.5 |
| 20260903155900 | 78 | 264 | 3.0 | 8.0 | 0.00 | 0.52 | 0.16 | 85 | 1015.0 |
| 20260903155350 | 79 | 32 | 2.0 | 10.0 | 0.00 | 0.52 | 0.16 | 86 | 1015.0 |